Vorticity
5 4 7 8 7 9 7 6 6 4 5 8 9 9 11 9 10 8 9 11 12 10 9 8 7 8 8 7 7 9 11 12 10 8 7 6 7 7 8 9 9 10 9 8
5 4 2 7 2 3 8 1 9 4 8 3 3 3 4 8 6 8 8 6 6 8 8 8 9 9 8 8 8 8 8 8 7 10 7 6 7 5 5 6 6 6 7 9
6 5 4 10 4 7 9 8 4 10 9 12 7 -1 12 5 9 6 4 6 7 10 8 6 7 9 7 9 9 9 9 10 10 9 8 11 9 7 6 6 8 8 7 7
6 7 5 12 9 8 10 8 8 8 1 4 2 15 7 10 7 6 3 6 6 3 7 6 3 5 5 4 4 7 11 9 10 9 9 9 11 9 5 3 3 5 7 7
7 10 8 1 8 12 4 1 9 7 6 5 9 8 8 8 6 3 5 7 5 5 5 4 3 2 2 3 5 6 6 5 8 9 8 9 8 10 10 12 13 13 9 5
5 5 4 3 7 9 15 -1 2 0 2 6 -2 4 3 3 8 6 3 2 3 6 3 3 4 3 5 7 7 7 7 5 5 9 10 9 10 9 9 9 8 9 11 12
5 8 2 5 6 11 5 12 4 6 5 2 4 4 8 7 3 4 5 6 9 10 7 5 5 5 7 9 7 10 9 11 9 10 12 11 11 10 10 10 9 8 6 5
8 8 8 5 3 4 5 6 5 3 2 5 6 5 3 1 2 1 7 8 5 4 6 7 4 6 9 10 9 9 12 10 11 11 10 8 8 9 9 9 9 8 7 5
3 5 10 15 10 3 2 1 3 3 6 8 7 7 9 7 5 7 7 4 5 6 8 8 8 9 9 9 8 10 12 11 9 8 8 7 8 8 8 6 7 7 7 8
10 5 13 5 1 3 4 5 5 6 6 4 4 5 4 6 8 6 5 6 8 9 8 10 9 11 11 10 9 15 14 14 13 12 13 12 12 11 9 9 9 9 11 11
10 14 5 1 9 6 8 13 12 10 8 8 8 7 6 7 7 7 8 8 9 8 7 10 10 9 9 9 12 12 10 11 11 12 13 13 11 12 10 10 10 9 8 9
14 10 7 7 6 7 5 6 8 10 10 6 6 6 6 8 8 8 8 7 8 11 13 11 11 11 10 10 9 12 12 14 15 17 14 14 12 11 11 11 11 11 12 10
8 3 6 9 8 7 8 7 8 5 1 6 8 9 7 7 9 10 11 11 12 10 10 10 11 12 14 18 15 13 13 15 11 12 12 10 8 9 9 8 7 6 6 7
11 12 8 7 7 11 8 7 6 7 9 10 8 7 7 8 9 10 10 9 9 8 7 5 7 17 14 9 10 11 11 16 17 14 11 10 10 14 16 21 21 17 14 10
13 15 7 7 8 8 9 8 9 10 8 7 8 9 9 10 10 8 10 9 8 7 10 17 18 24 14 12 11 14 14 12 9 13 17 19 20 20 18 19 18 19 19 22
17 13 12 13 12 9 7 8 8 8 7 8 8 9 8 8 10 10 8 9 12 13 17 14 15 11 8 12 12 13 10 7 14 20 17 16 19 21 19 18 17 17 17 20
10 8 9 10 11 12 12 14 13 10 9 10 10 10 10 9 8 9 11 13 17 17 16 13 7 2 7 10 6 7 14 21 15 19 23 22 21 21 23 22 24 25 26 24
10 11 12 15 17 15 12 11 12 14 12 10 9 6 7 9 12 16 20 12 8 8 10 9 1 5 11 18 17 16 14 22 23 20 18 16 16 19 20 19 18 15 14 14
20 18 15 14 10 10 10 8 7 7 9 12 10 8 13 17 16 12 8 3 9 10 13 16 16 12 12 16 21 27 26 19 17 15 17 19 19 18 18 18 18 18 19 21
9 5 3 11 7 11 9 10 11 12 9 10 17 16 16 14 12 12 10 11 13 18 17 18 19 20 21 21 20 20 15 15 15 16 16 18 19 18 18 20 20 21 19 17
9 8 11 17 18 2 4 -3 -5 5 12 12 15 15 13 14 15 14 14 17 23 21 23 24 26 26 25 21 14 11 14 15 15 16 18 16 16 16 18 17 16 16 14 15
1 1 -3 -5 -13 -5 9 12 15 16 20 16 14 15 17 17 19 21 22 24 23 20 20 20 19 19 19 14 14 14 10 11 15 20 19 10 11 16 17 17 18 17 18 22
3 9 0 -15 7 27 18 20 17 17 17 17 16 20 23 21 19 21 21 12 25 30 28 26 23 18 16 14 13 9 11 10 15 14 20 14 14 16 16 17 20 23 21 18
21 34 33 27 22 22 20 19 17 16 20 22 23 18 16 18 13 18 18 18 13 10 12 15 15 14 15 18 18 8 12 13 13 18 21 15 16 15 19 23 26 19 11 11
23 23 22 17 15 16 20 22 24 25 18 13 15 18 13 9 12 15 11 11 8 9 8 8 4 -0 2 10 14 15 11 12 15 14 13 15 15 24 27 22 17 8 13 11
15 20 26 30 31 23 16 15 12 14 22 22 17 14 16 16 16 17 18 15 13 12 15 10 16 19 25 21 12 22 16 14 13 10 16 20 25 29 22 11 11 12 10 11
32 27 15 14 16 18 18 23 26 24 14 8 8 10 15 8 7 8 9 13 15 23 23 21 27 30 27 29 26 22 17 12 11 18 26 22 27 22 8 11 11 9 10 13
Height
5754 5753 5752 5749 5746 5742 5740 5737 5735 5734 5732 5728 5725 5722 5718 5715 5712 5709 5706 5703 5699 5696 5692 5688 5685 5681 5677 5674 5671 5668 5665 5662 5658 5654 5651 5647 5644 5641 5638 5635 5632 5629 5627 5625
5749 5745 5744 5744 5739 5735 5732 5729 5727 5723 5723 5718 5716 5714 5711 5706 5703 5700 5697 5694 5690 5687 5683 5679 5676 5672 5668 5664 5660 5657 5654 5650 5647 5644 5642 5639 5635 5632 5628 5625 5622 5619 5616 5613
5742 5737 5734 5736 5732 5727 5724 5721 5717 5715 5713 5710 5709 5706 5702 5698 5694 5691 5688 5685 5681 5677 5674 5670 5665 5662 5658 5654 5651 5646 5642 5639 5636 5633 5630 5627 5624 5620 5617 5613 5610 5606 5603 5600
5730 5728 5724 5725 5722 5717 5713 5711 5706 5704 5702 5700 5699 5697 5693 5688 5685 5682 5678 5673 5669 5665 5662 5657 5653 5650 5645 5641 5638 5634 5630 5626 5623 5619 5616 5613 5609 5606 5602 5599 5595 5591 5588 5585
5717 5717 5715 5716 5712 5707 5703 5703 5698 5694 5693 5690 5688 5687 5684 5678 5673 5669 5665 5661 5657 5653 5649 5644 5640 5636 5632 5628 5624 5620 5616 5612 5608 5605 5600 5597 5593 5590 5586 5582 5578 5575 5571 5568
5706 5701 5700 5704 5700 5697 5692 5691 5686 5685 5681 5679 5677 5674 5672 5667 5661 5657 5653 5648 5645 5641 5637 5632 5628 5624 5619 5614 5610 5605 5600 5596 5592 5588 5584 5579 5575 5572 5568 5564 5560 5556 5552 5547
5694 5689 5687 5691 5684 5681 5680 5679 5674 5670 5667 5665 5664 5662 5657 5653 5650 5646 5641 5637 5633 5628 5623 5617 5613 5608 5603 5598 5593 5589 5584 5578 5573 5569 5565 5562 5557 5553 5549 5545 5541 5537 5533 5527
5682 5678 5676 5676 5670 5665 5661 5658 5656 5654 5650 5648 5645 5641 5637 5634 5632 5628 5626 5621 5616 5612 5606 5600 5594 5590 5584 5579 5574 5569 5563 5558 5553 5549 5545 5541 5538 5533 5528 5526 5522 5518 5515 5510
5667 5666 5663 5662 5656 5649 5647 5644 5641 5639 5637 5633 5630 5627 5623 5618 5614 5609 5604 5600 5595 5591 5586 5579 5573 5568 5564 5557 5552 5548 5542 5537 5533 5529 5524 5519 5515 5511 5507 5502 5499 5495 5492 5489
5653 5656 5649 5644 5640 5635 5632 5629 5626 5623 5620 5616 5613 5609 5605 5601 5596 5591 5586 5581 5576 5570 5565 5559 5550 5544 5540 5534 5530 5527 5523 5518 5513 5508 5503 5496 5490 5487 5484 5479 5475 5470 5466 5463
5639 5638 5630 5626 5621 5620 5617 5614 5610 5606 5601 5597 5593 5590 5585 5581 5577 5572 5566 5559 5554 5549 5544 5537 5529 5523 5516 5509 5506 5502 5498 5496 5492 5486 5479 5475 5470 5465 5460 5455 5448 5446 5441 5437
5621 5615 5608 5608 5603 5601 5599 5595 5590 5587 5583 5578 5575 5571 5568 5563 5558 5553 5546 5540 5534 5529 5524 5518 5511 5504 5497 5488 5481 5480 5478 5473 5468 5463 5458 5453 5447 5444 5438 5432 5425 5421 5416 5409
5604 5597 5589 5587 5582 5580 5577 5574 5570 5565 5562 5559 5555 5550 5546 5542 5536 5531 5525 5518 5512 5508 5504 5497 5489 5483 5473 5464 5460 5457 5453 5448 5444 5440 5436 5431 5425 5419 5414 5411 5403 5399 5393 5386
5576 5578 5570 5566 5564 5560 5555 5551 5548 5545 5541 5538 5533 5527 5522 5518 5515 5510 5503 5496 5489 5485 5480 5476 5470 5462 5450 5444 5441 5436 5430 5425 5418 5414 5408 5403 5398 5392 5386 5381 5377 5375 5371 5363
5556 5553 5549 5544 5541 5537 5533 5530 5526 5522 5518 5515 5510 5506 5500 5496 5494 5490 5482 5474 5467 5463 5459 5453 5446 5438 5430 5425 5421 5415 5409 5403 5396 5390 5383 5375 5368 5363 5358 5353 5348 5345 5344 5342
5530 5527 5526 5524 5520 5515 5510 5506 5503 5499 5495 5491 5486 5483 5478 5471 5467 5465 5460 5452 5444 5442 5437 5431 5425 5415 5412 5406 5400 5394 5388 5381 5372 5365 5359 5351 5345 5338 5333 5328 5325 5321 5319 5315
5507 5504 5502 5501 5498 5494 5491 5488 5483 5480 5477 5469 5464 5460 5456 5451 5447 5442 5436 5429 5421 5418 5412 5406 5397 5393 5388 5382 5374 5370 5364 5358 5349 5342 5335 5330 5324 5318 5313 5308 5304 5301 5299 5295
5486 5484 5481 5479 5477 5475 5473 5468 5463 5458 5455 5450 5445 5441 5437 5431 5425 5419 5413 5405 5400 5396 5391 5383 5377 5370 5366 5359 5352 5347 5342 5335 5329 5323 5318 5312 5306 5300 5296 5291 5287 5283 5281 5277
5466 5465 5462 5460 5455 5453 5453 5449 5443 5438 5437 5431 5424 5420 5414 5408 5402 5394 5387 5381 5378 5373 5372 5364 5357 5350 5346 5341 5333 5329 5323 5317 5313 5307 5301 5297 5292 5286 5280 5276 5272 5268 5265 5262
5448 5446 5443 5439 5436 5431 5428 5426 5419 5416 5415 5408 5401 5394 5389 5385 5378 5370 5364 5359 5360 5351 5344 5341 5336 5333 5328 5322 5316 5311 5307 5302 5297 5292 5287 5282 5277 5272 5268 5264 5259 5256 5253 5250
5430 5427 5423 5419 5417 5414 5409 5405 5399 5396 5393 5386 5378 5371 5365 5361 5356 5349 5343 5337 5340 5330 5322 5320 5315 5312 5308 5304 5300 5297 5293 5288 5282 5277 5274 5269 5265 5260 5256 5252 5248 5245 5241 5239
5413 5411 5408 5403 5398 5395 5391 5385 5380 5373 5368 5363 5357 5350 5343 5339 5333 5327 5323 5314 5312 5310 5303 5300 5296 5293 5290 5287 5285 5283 5280 5274 5270 5265 5261 5257 5253 5249 5245 5241 5238 5235 5232 5230
5397 5393 5389 5384 5379 5372 5370 5365 5357 5351 5347 5342 5337 5331 5323 5316 5312 5306 5305 5304 5293 5291 5286 5283 5280 5277 5274 5271 5270 5268 5265 5261 5257 5253 5249 5246 5242 5238 5235 5231 5229 5227 5226 5224
5378 5373 5368 5363 5358 5354 5349 5345 5338 5335 5329 5325 5320 5315 5307 5301 5299 5294 5287 5283 5280 5276 5273 5269 5265 5262 5258 5256 5255 5253 5251 5248 5245 5241 5238 5235 5232 5228 5225 5223 5222 5221 5220 5219
5358 5354 5349 5344 5339 5336 5331 5326 5322 5320 5314 5310 5306 5302 5295 5290 5282 5281 5276 5271 5267 5262 5259 5257 5253 5248 5245 5243 5240 5239 5238 5236 5233 5230 5228 5225 5222 5220 5218 5217 5216 5216 5216 5215
5340 5335 5332 5328 5324 5319 5315 5310 5306 5304 5298 5295 5293 5289 5285 5279 5273 5267 5264 5260 5255 5251 5246 5242 5238 5234 5230 5228 5226 5225 5224 5224 5222 5220 5217 5216 5214 5213 5213 5213 5213 5213 5212 5212
5326 5323 5318 5315 5312 5306 5302 5297 5293 5291 5288 5282 5277 5277 5272 5267 5261 5255 5251 5247 5241 5237 5232 5227 5222 5218 5215 5214 5213 5213 5213 5213 5212 5210 5209 5208 5208 5208 5209 5210 5210 5210 5209 5209